Santiago, Dominican Republic

6:54 PM AST on August 18, 2017 (GMT -0400)
Cibao International

Weather History for MDST - May, 2014

Change the Weather History Date:

Monday, May 12, 2014

  Actual Average Record
Temperature  
Mean Temperature 77 °F -  
Max Temperature 86 °F 90 °F 93 °F (1998)
Min Temperature 68 °F 71 °F 67 °F (2013)
Cooling Degree Days 12    
Growing Degree Days 27 (Base 50)    
Moisture  
Dew Point 70 °F    
Average Humidity 82    
Maximum Humidity 100    
Minimum Humidity 51    
Precipitation  
Precipitation 0.00 in 0.15 in - ()
Sea Level Pressure  
Sea Level Pressure 29.95 in    
Wind  
Wind Speed 10 mph ()    
Max Wind Speed 22 mph    
Max Gust Speed -    
Visibility 6.0 miles    
Events Rain    
Averages and records for this station are not official NWS values.
T = Trace of Precipitation, MM = Missing Value Source: Averaged Metar Reports

Daily Weather History Graph

Daily Weather History Graph

Search for Another Location

Airport or City:

Trip Planner

Search our weather history database for the weather conditions in past years. The results will help you decide how hot, cold, wet, or windy it might be!

Date:

Astronomy

May. 12, 2014 Rise Set
Actual Time 6:08 AM AST 7:09 PM AST
Civil Twilight 5:45 AM AST 7:33 PM AST
Nautical Twilight 5:17 AM AST 8:00 PM AST
Astronomical Twilight 4:49 AM AST 8:29 PM AST
Moon 5:20 PM AST (5/12) 4:25 AM AST (5/12)
Length of Visible Light 13h 47m
Length of Day
13h 00m
Waxing Gibbous, 95% of the Moon is Illuminated
May 12
Waxing Gibbous
May 14
Full
May 21
Last Quarter
May 28
New
Jun 5
First Quarter

Hourly Weather History & Observations

Time (AST) Temp. Heat Index Dew Point Humidity Pressure Visibility Wind Dir Wind Speed Gust Speed Precip Events Conditions
12:00 AM 69.8 °F - 69.8 °F 100% 29.95 in 6.2 mi ESE 4.6 mph - N/A   Scattered Clouds
2:00 AM 69.8 °F - 69.8 °F 100% 29.92 in 6.2 mi East 6.9 mph - N/A   Scattered Clouds
3:00 AM 69.8 °F - 69.8 °F 100% 29.89 in 6.2 mi ESE 11.5 mph - N/A   Scattered Clouds
4:00 AM 69.8 °F - 69.8 °F 100% 29.89 in 6.2 mi SE 5.8 mph - N/A   Scattered Clouds
5:00 AM 69.8 °F - 68.0 °F 94% 29.89 in 6.2 mi SE 9.2 mph - N/A   Scattered Clouds
6:00 AM 69.8 °F - 69.8 °F 100% 29.92 in 6.2 mi SE 9.2 mph - N/A   Scattered Clouds
7:00 AM 69.8 °F - 68.0 °F 94% 29.95 in 6.2 mi ESE 6.9 mph - N/A   Scattered Clouds
8:00 AM 73 °F - 71 °F 89% 29.96 in 5 mi ESE 8.9 mph - -   Haze
8:00 AM 73.4 °F - 69.8 °F 88% 29.95 in 6.2 mi ESE 9.2 mph - N/A   Scattered Clouds
9:00 AM 77.0 °F - 69.8 °F 78% 29.98 in 6.2 mi SE 11.5 mph - N/A   Scattered Clouds
10:00 AM 78.8 °F - 71.6 °F 78% 29.98 in 6.2 mi SE 11.5 mph - N/A   Scattered Clouds
11:00 AM 82 °F - 71 °F 61% 29.99 in 6 mi ESE 20.1 mph - -   Haze
11:00 AM 80.6 °F 84.6 °F 71.6 °F 74% 29.98 in 6.2 mi ESE 20.7 mph - N/A   Scattered Clouds
12:00 PM 84.2 °F 89.6 °F 71.6 °F 66% 29.95 in 6.2 mi SE 11.5 mph - N/A   Scattered Clouds
1:00 PM 84.2 °F 87.3 °F 68.0 °F 58% 29.95 in 6.2 mi ESE 18.4 mph - N/A   Scattered Clouds
2:00 PM 83 °F - 70 °F 57% 29.95 in 6 mi East 20.1 mph - -   Haze
2:00 PM 82.4 °F 86.3 °F 69.8 °F 66% 29.95 in 6.2 mi East 20.7 mph - N/A   Scattered Clouds
3:00 PM 86.0 °F 89.4 °F 68.0 °F 55% 29.92 in 6.2 mi ESE 21.9 mph - N/A   Mostly Cloudy
4:00 PM 84.2 °F 87.3 °F 68.0 °F 58% 29.92 in 6.2 mi ESE 20.7 mph - N/A   Partly Cloudy
5:00 PM 85 °F - 69 °F 51% 29.92 in 5 mi ESE 20.1 mph - -   Mostly Cloudy
5:00 PM 84.2 °F 88.4 °F 69.8 °F 62% 29.92 in 5.0 mi ESE 19.6 mph - N/A   Mostly Cloudy
6:00 PM 73.4 °F - 71.6 °F 94% 29.95 in 5.0 mi SSE 6.9 mph - N/A Rain Light Rain
7:00 PM 73.4 °F - 71.6 °F 94% 29.95 in 6.2 mi SSE 5.8 mph - N/A   Mostly Cloudy
8:00 PM 71.6 °F - 71.6 °F 100% 29.98 in 6.2 mi ESE 4.6 mph - N/A   Mostly Cloudy
9:00 PM 71.6 °F - 71.6 °F 100% 29.98 in 6.2 mi East 5.8 mph - N/A   Mostly Cloudy
10:00 PM 71.6 °F - 71.6 °F 100% 30.01 in 6.2 mi ESE 8.1 mph - N/A   Scattered Clouds
11:00 PM 71.6 °F - 71.6 °F 100% 30.01 in 6.2 mi SSE 5.8 mph - N/A   Scattered Clouds